Other Public Products
Issued by NWS Charleston, SC

Current Version | Previous Version | Graphics & Text | Print | Product List | Glossary On
Versions: 1 2 3 4 5 6 7 8 9 10 11 12 13 14 15 16 17 18 19 20 21 22 23 24 25 26 27 28 29 30 31 32 33 34 35 36 37 38 39 40 41 42 43 44 45 46 47 48 49 50
000
FPUS82 KCHS 220527
OPUCHS

TEST...KCHS/KSAV Gateway Observations...TEST
National Weather Service Charleston SC
1200 AM EST WED NOV 22 2017

NOTE: "fair" indicates few or no clouds below 12,000 feet with no
significant weather and/or obstructions to visibility.

SCZ050-WAZ558-NCZ071-TXZ119-213-PAZ071-DCZ001-FLZ074-172-MI076-
NYZ176-178-MAZ016-IL014-TNZ027-NJZ106-GAZ044-MD014-220600-

...Gateway Observations for Charleston International...

CITY           SKY/WX    TMP DP  RH WIND       PRES   REMARKS
Chas Airport   LGT RAIN  62  62 100 S3        29.98F
Seattle        RAIN      58  57  97 SE9       29.92R FOG
Charlotte      LGT RAIN  53  52  96 N3        30.03S FOG
Dallas DFW     CLEAR     56  36  47 N15       30.22R
Dallas Love    CLEAR     57  35  43 N17G23    30.23R
Philladelphia  CLOUDY    52  42  69 S6        30.02F
Wash National  CLOUDY    53  45  74 SW9       30.02F
Baltimore      MOCLDY    54  45  71 S3        30.00F
Miami          MOCLDY    76  71  85 CALM      29.94F
Detroit        CLOUDY    36  25  64 NW15G22   30.03R WCI  27
Newark         CLOUDY    49  40  71 CALM      30.02F
Laguardia      CLOUDY    53  41  63 S9        30.02F
J F K          CLOUDY    48  43  82 S8        30.05S
Boston Logan   PTCLDY    50  39  66 SW7       30.03R
Ft. Lauderdale MOCLDY    75  72  90 CALM      29.93F
Chicago O`Hare PTCLDY    28  15  58 NW8       30.20R WCI  20
Chicago Midway CLEAR     29  15  56 NW13G21   30.21R WCI  19
Houston Bush   MOCLDY    62  57  83 N9        30.07R
Houston Hobby  CLOUDY    63  59  87 NE12      30.05R
Nashville      CLEAR     41  34  76 S3        30.11S
Atlanta        MOCLDY    56  54  93 E3        30.02S

$$

GAZ044-118-TXZ119-213-NCZ071-DCZ001-MDZ014-506-PAZ021-071-NJZ106-
NYZ176-178-MAZ106-OHZ011-021-055-MIZ076-KYZ091-ILZ014-INZ047-
MNZ060-ONZ431-220600-

...Gateway Observations for Savannah International...

CITY           SKY/WX    TMP DP  RH WIND       PRES   REMARKS
Savannah Arpt  CLOUDY    62  62 100 NW3       29.99S FOG
Atlanta        MOCLDY    56  54  93 E3        30.02S
Charlotte      LGT RAIN  53  52  96 N3        30.03S FOG
Dallas DFW     CLEAR     56  36  47 N15       30.22R
Houston Bush   MOCLDY    62  57  83 N9        30.07R
Wash National  CLOUDY    53  45  74 SW9       30.02F
Wash Dulles    CLOUDY    53  44  71 S9        29.99F
Baltimore      MOCLDY    54  45  71 S3        30.00F
Philadelphia   CLOUDY    52  42  69 S6        30.02F
Newark         CLOUDY    49  40  71 CALM      30.02F
Laguardia      CLOUDY    53  41  63 S9        30.02F
J F K          CLOUDY    48  43  82 S8        30.05S
Boston         PTCLDY    50  39  66 SW7       30.03R
Pittsburg      CLOUDY    48  30  49 W8        29.92F
Akron          LGT RAIN  40  34  79 NW17G24   29.97R WCI  31
Cleveland      LGT RAIN  37  35  92 W8        30.03R WCI  31
Cincinnati     CLOUDY    37  34  89 NW15      30.10R WCI  28
Columbus       LGT RAIN  39  37  91 NW18G24   30.04R WCI  30
Detroit        CLOUDY    36  25  64 NW15G22   30.03R WCI  27
Chicago O`Hare PTCLDY    28  15  58 NW8       30.20R WCI  20
Minneapolis    CLOUDY    19  11  70 NW10      30.32R WCI   7
Indianapolis   CLEAR     29  23  78 NW7       30.16R WCI  22
Toronto Canada CLOUDY    37  32  81 NW9       29.91R WCI  31

$$




USA.gov is the U.S. government's official web portal to all federal, state and local government web resources and services.